This is the latest recevied weather packets stored in our database for station/object IQ5KG. If no packets are shown the sender has not sent any weather packets the latest 10 day(s).
| Time | Temp. | Humidity | Pressure | Rain* | Wind** | Luminosity | Snow |
|---|---|---|---|---|---|---|---|
| 1777886286 | 19.44° C | 54% | 1019.7 hPa | 0 mm | - | - | - |
| 1777885385 | 18.89° C | 56% | 1019.7 hPa | 0 mm | - | - | - |
| 1777884485 | 18.33° C | 62% | 1019.9 hPa | 0 mm | - | - | - |
| 1777883586 | 17.22° C | 63% | 1019.9 hPa | 0 mm | - | - | - |
| 1777882685 | 16.11° C | 67% | 1019.7 hPa | 0 mm | - | - | - |
| 1777881786 | 15.56° C | 66% | 1019.7 hPa | 0 mm | - | - | - |
| 1777880885 | 15.56° C | 65% | 1019.6 hPa | 0 mm | - | - | - |
| 1777879985 | 15.56° C | 72% | 1019.7 hPa | 0 mm | - | - | - |
| 1777879085 | 15° C | 71% | 1019.7 hPa | 0 mm | - | - | - |
| 1777878186 | 15° C | 69% | 1019.8 hPa | 0 mm | - | - | - |
| 1777877284 | 13.89° C | 68% | 1019.7 hPa | 0 mm | - | - | - |
| 1777876384 | 13.33° C | 67% | 1019.8 hPa | 0 mm | - | - | - |
| 1777875485 | 12.78° C | 75% | 1019.9 hPa | 0 mm | - | - | - |
| 1777874584 | 11.67° C | 74% | 1019.6 hPa | 0 mm | - | - | - |
| 1777873685 | 11.67° C | 72% | 1019.7 hPa | 0 mm | - | - | - |
| 1777872784 | 11.67° C | 73% | 1019.6 hPa | 0 mm | - | - | - |
| 1777871885 | 11.67° C | 72% | 1019.8 hPa | 0 mm | - | - | - |
| 1777870984 | 12.78° C | 70% | 1019.5 hPa | 0 mm | - | - | - |
| 1777870083 | 12.22° C | 69% | 1019.4 hPa | 0 mm | - | - | - |
| 1777869184 | 13.33° C | 71% | 1019 hPa | 0 mm | - | - | - |
| 1777868284 | 11.67° C | 67% | 1018.9 hPa | 0 mm | - | - | - |
| 1777867383 | 11.67° C | 67% | 1018.7 hPa | 0 mm | - | - | - |
| 1777866484 | 11.67° C | 69% | 1018.7 hPa | 0 mm | - | - | - |
| 1777865584 | 11.67° C | 70% | 1018.7 hPa | 0 mm | - | - | - |
| 1777864683 | 11.11° C | 68% | 1018.6 hPa | 0 mm | - | - | - |
* Rain latest hour (hover to see other rain measurements)
** Current wind speed in m/s (hover to see current wind gust speed)